Regional Weather Roundup
Issued by NWS Grand Forks, ND

Home | Current Version | Previous Version | Text Only | Print | Product List | Glossary Off
Versions: 1 2 3 4 5 6 7 8 9 10 11 12 13 14 15 16 17 18 19 20 21 22 23 24 25 26 27 28 29 30 31 32 33 34 35 36 37 38 39 40 41 42 43 44 45 46 47 48 49 50

000
ASUS43 KFGF 250531
RWRFGF
PRAIRIE TO PINES  WEATHER ROUNDUP
NATIONAL WEATHER SERVICE EASTERN NORTH DAKOTA/GRAND FORKS ND
1200 AM CDT FRI APR 25 2014

 **SATELLITE DATA USED TO AUGMENT SKY COVER AT AUTOMATED STATIONS**
 *****  WEATHER ACROSS EASTERN NORTH DAKOTA  *****

CITY           SKY/WX    TMP DP  RH WIND       PRES   REMARKS
GRAND FORKS    FOG       39  37  93 N6        29.71R VSB 3/4
GRAND FRKS AFB FOG       39  39 100 N3        29.72R VSB 3/4
GRAND FRKS NWS   N/A     37 N/A N/A N3          N/A
DEVILS LAKE    CLOUDY    37  34  87 SE5       29.72S VSB 3/4
FARGO          FOG       38  37  97 CALM      29.71R VSB 1/4
WAHPETON ARPT  CLEAR     36  34  93 W3        29.72R
$$

 ***** WEATHER ACROSS CENTRAL AND WESTERN NORTH DAKOTA  *****

CITY           SKY/WX    TMP DP  RH WIND       PRES   REMARKS
BISMARCK       CLEAR     37  30  75 CALM      29.75F
MINOT          CLEAR     42  32  67 SW8       29.70S
JAMESTOWN      CLEAR     37  35  92 SW6       29.72S
MINOT AFB      CLEAR     35  35  98 W7        29.69F
GARRISON         N/A     40  32  73 CALM      29.72F
WILLISTON      CLOUDY    37  29  72 CALM      29.71S
DICKINSON      CLOUDY    40  26  57 S6        29.74S
HETTINGER      CLOUDY    51  27  39 NW10      29.78S
$$

 *****  OTHER AIRPORT OBSERVATIONS IN OUR AREA  *****

CITY           SKY/WX    TMP DP  RH WIND       PRES   REMARKS
WALHALLA       FOG       36  36 100 E5        29.74S VSB 3/4
GRAFTON AIRPOR FOG       36  36 100 NE5       29.73S VSB 1/2
VALLEY CITY AR FAIR      34  34 100 NW5       29.72S
CANDO          FOG       34  34 100 SE6       29.72S VSB 1/4
CAVALIER APRT  FOG       36  36 100 E6        29.73S VSB 1/2
GWINNER        CLEAR     36  36 100 W6        29.74S
ROLLA          FAIR      37  37 100 SW6       29.71S
 ***** THE ABOVE OBSERVATIONS ARE NON NWS ARE NOT QUALITY
       CONTROLLED AND MAY MIS-REPORT RAIN FOR SNOW...
$$

  *****  WEATHER ACROSS NORTHERN MINNESOTA  *****

CITY           SKY/WX    TMP DP  RH WIND       PRES   REMARKS
FLAG ISLAND    MIX PCPN  32  30  93 NE6       29.73F
WARROAD        LGT SNOW  34  28  80 NE6       29.73S
ROSEAU         LGT SNOW  34  28  80 CALM      29.73S
HALLOCK        DRIZZLE   36  34  93 NE3       29.73S
THF RVR FALLS  CLOUDY    34  30  86 E5        29.71F
BAUDETTE       LGT SNOW  33  32  96 NE6       29.70F FOG
WASKISH        LGT SNOW  34  32  93 NE3       29.68F
CROOKSTON      CLOUDY    36  36 100 NE3       29.71S
$$
  *****  WEATHER ACROSS CENTRAL AND WEST MINNESOTA  *****

CITY           SKY/WX    TMP DP  RH WIND       PRES   REMARKS
FOSSTON        CLOUDY    32  30  93 NE6       29.69S FOG
BEMIDJI        CLOUDY    32  32 100 N3        29.68S
PARK RAPIDS    FOG       33  33 100 CALM      29.66F VSB 1/2
ELBOW LAKE     FAIR      35  34  98 SW7       29.71R
WADENA         FOG       32  30  93 CALM      29.68S VSB<1/4
DETROIT LAKES  FOG       36  36 100 N5        29.69S VSB 1
MOORHEAD       MOCLDY    37  37 100 N3        29.72R FOG
FERGUS FALLS   MOCLDY    37  34  87 NW5       29.69R
MORRIS MN      CLEAR     39  37  93 SW6       29.70F
STAPLES        FOG       34  34 100 SW3       29.69R VSB 1/4
$$
  *****  WEATHER ELSEWHERE ACROSS MINNESOTA  *****

CITY           SKY/WX    TMP DP  RH WIND       PRES   REMARKS
DULUTH         FRZ DRZL  32  31  96 CALM      29.65F
INTRNTL FALLS  LGT SNOW  33  31  92 E6        29.69F FOG
ELY            LGT SNOW  32  30  93 E9        29.66F WCI  24
CLOQUET        FLURRIES  32  32 100 CALM      29.66F
WHEATON        CLEAR     43  39  87 SW8       29.73F
BRAINERD       FOG       39  35  86 CALM      29.68F VSB 1/4
HIBBING        LGT SNOW  33  32  96 CALM      29.66F FOG
ALEXANDRIA     CLEAR     37  35  92 SW8       29.71S
SAINT CLOUD    PTCLDY    38  35  89 SW8       29.71R FOG
MINNEAPOLIS    PTCLDY    40  38  93 SW3       29.73S
$$

  *****  WEATHER ACROSS SOUTH DAKOTA  *****

CITY           SKY/WX    TMP DP  RH WIND       PRES   REMARKS
SIOUX FALLS    CLEAR     42  30  62 NE3       29.77R
BROOKINGS      NOT AVBL
WATERTOWN      CLEAR     41  38  89 SE3       29.74R
HURON          PTCLDY    44  22  41 W8        29.75S
SISSETON         N/A     42  39  89 SW12      29.71F
ABERDEEN       MOCLDY    41  32  70 N7        29.76R
MITCHELL       PTCLDY    47  24  40 W8        29.78R
PIERRE         CLOUDY    51  25  36 SW6       29.75F
MOBRIDGE       CLOUDY    48  28  46 E7        29.74S
RAPID CITY     CLOUDY    44  28  53 N5        29.81R
$$

  *****  SOME WEATHER IN NEARBY STATES *****

CITY           SKY/WX    TMP DP  RH WIND       PRES   REMARKS
GLASGOW MT     PTCLDY    50  34  54 SW6       29.71F
GREAT FALLS MT MOCLDY    44  32  62 SW14      29.76F
CHEYENNE WY    CLOUDY    52  19  27 W14       29.94S
SCOTTSBLUFF NE CLOUDY    61  25  25 W20G25    29.82S
OMAHA NE       CLEAR     50  42  74 SE6       29.82R
DES MOINES IA  MOCLDY    48  43  82 W5        29.80S
DAVENPORT IA   CLOUDY    51  48  89 NW16      29.69R FOG
CHICAGO IL     LGT RAIN  52  38  58 E6        29.63F
EAU CLAIRE WI  CLOUDY    43  40  89 W6        29.71R
LA CROSSE WI   CLOUDY    46  40  79 NW10      29.73R
$$

  *****  SOME NATIONAL WEATHER *****

CITY           SKY/WX    TMP DP  RH WIND       PRES   REMARKS
LA GUARDIA NY  CLEAR     50  18  28 NW12      30.01F
RALEIGH NC     PTCLDY    57  39  51 SE7       30.00F
ATLANTA GA     MOCLDY    67  52  58 S7        29.91F
NEW ORLEANS LA PTCLDY    70  67  90 S7        29.94R
OKLAHOMA CITY  PTCLDY    54  39  57 SE6       29.96S
ALBUQUERQUE NM CLEAR     60   7  12 NE9       30.02F
SALT LAKE CITY MOCLDY    54  29  38 SW7       29.86F
LOS ANGELES CA CLEAR     62  53  72 S6        29.94R
BOISE ID       MOCLDY    49  42  77 SE9       29.86F
SEATTLE WA     MOCLDY    48  43  81 S6        29.91R
$$

*** WEATHER ACROSS MANITOBA...SASKATCHEWAN AND ONTARIO ***
                ***ONTARIO***

CITY           SKY/WX    TMP DP  RH WIND       PRES   REMARKS
GERALDTON      CLOUDY    39  23  52 NE8       29.93F
THUNDER BAY    LGT SNOW  34  32  93 E20G26    29.86F WCI  22
SIOUX LOOKOUT  LGT SNOW  32  32 100 E7        29.84F
TORONTO        CLOUDY    46  19  34 E6        29.98F
BIG TROUT LK   CLEAR     19  14  79 E9G17     30.15S WCI   9
PICKLE LAKE    NOT AVBL
DRYDEN         LGT SNOW  32  32 100 E13G18    29.78F WCI  22
KENORA         LGT SNOW  32  32 100 E9G17     29.77F WCI  24
$$
                *** MANITOBA***

CITY           SKY/WX    TMP DP  RH WIND       PRES   REMARKS
BRANDON        FOG       39  37  93 NE9       29.74S VSB 1/4
DAUPHIN        LGT RAIN  34  34 100 E9        29.78S FOG
ISLAND LAKE    MOCLDY    30  25  80 N9G21     30.02F WCI  22
PILOT MOUND      N/A     39  37  93 E5          N/A
THE PAS        CLOUDY    32  27  80 E10G21    29.95F WCI  24
THOMPSON       PTCLDY    23  18  80 NE12G20   30.15S WCI  12
WINNIPEG       LGT SNOW  32  32 100 E7        29.78F FOG
LYNN LAKE      CLEAR     21  16  79 E13G20    30.14R WCI   9
CHURCHILL      FLURRIES  14  10  85 E5        30.42S WCI   6
GILLAM         PTCLDY    16  12  86 NE14G21   30.26S WCI   1
$$
                ***SASKATCHEWAN***

CITY           SKY/WX    TMP DP  RH WIND       PRES   REMARKS
ESTEVAN        PTCLDY    37  32  81 NW3       29.70F
KINDERSLEY     PTCLDY    34  32  93 E10       29.74R
LLOYDMINSTER   LGT SNOW  32  30  93 E10       29.79S WCI  24
PRINCE ALBERT  LGT SNOW  30  30 100 E14       29.82R FOG     WCI  20
REGINA         PTCLDY    39  34  81 SE2       29.72S
YORKTON        LGT RAIN  36  34  93 E8        29.74S
N. BATTLEFORD  FLURRIES  30  28  93 NE12      29.80S WCI  21
LA RONGE       CLOUDY    34  23  64 E8        29.96S
SASKATOON      LGT SNOW  32  32 100 NE13      29.75S WCI  22
SWIFT CURRENT  CLEAR     34  32  93 E8        29.71R
$$
NOTE: THESE ARE AUTOMATED STATIONS WITH LIMITED QUALITY CONTROL
      "FAIR" INDICATES FEW OR NO CLOUDS BELOW 12,000 FEET WITH NO
      SIGNIFICANT WEATHER AND/OR OBSTRUCTIONS TO VISIBILITY.
      SKY/WX - SKY CONDITION AND SIGNIFICANT WEATHER.
      TMP - AIR TEMPERATURE.    DP   - DEWPOINT TEMPERATURE.
      RH  - RELATIVE HUMIDITY.  PRES - PRESSURE.
      HX  - HEAT INDEX.         WCI  - WIND CHILL INDEX.
$



USA.gov is the U.S. government's official web portal to all federal, state and local government web resources and services.